Location: Wellington
(41.3000°S, 174.7830°E)
Time: 22:47:07
(UTC+13:00)

SeaSat 1 - Pass Details

Date: 24 January 2019
Orbit: 744 x 748 km, 108.0° (Epoch: 22 February)

Event Time Altitude Azimuth Distance (km) Brightness Sun altitude
Rises 23:36:22 0° 153° (SSE) 3,222 6.2 -23.7°
Reaches altitude 10° 23:38:40 10° 151° (SSE) 2,291 5.3 -23.9°
Maximum altitude 23:43:40 75° 65° (ENE) 782 2.3 -24.4°
Enters shadow 23:43:58 72° 29° (NNE) 793 2.3 -24.4°
